Location: Azul
(36.7830°S, 59.8500°W)
Time: 23:08:27
(UTC-03:00)

SO-50 - Visible Passes

Search period start: 17 September 2024 00:00
Search period end: 27 September 2024 00:00
Orbit: 611 x 649 km, 64.6° (Epoch: 17 September)

Date Brightness Start Highest point End Pass type
(mag) Time Alt. Az. Time Alt. Az. Time Alt. Az.
17 Sep ? 19:35:38 10° SSW 19:40:18 76° WNW 19:44:52 10° NNE visible
18 Sep ? 19:56:54 10° SW 20:00:59 31° WNW 20:05:00 10° N visible
19 Sep ? 20:19:23 10° W 20:21:29 13° WNW 20:23:34 10° NW visible
21 Sep ? 19:19:32 10° WSW 19:23:16 24° WNW 19:26:56 10° NNW visible
